Flag for Canada Weather past 2 weeks in Halton Hills, Ontario, Canada

Now
66 °F

Broken clouds.


Feels Like: 66 °F
Forecast: 58 / 73 °F
Wind: 8 mph from Southeast

Location: Toronto Pearson International Airport

Current Time: May 25, 2015 at 10:42:46 AM

Latest Report: May 25, 2015 at 10:00 AM


Visibility: 15 mi

Pressure: 30.07 "Hg

Humidity: 56%

Dew point: 50 °F

Location of Halton HillsLocation

Historic Weather in Halton Hills — Graph

°F

Halton Hills temperature yesterday

Maximum temperature yesterday: 82 °F (at 5:00 PM)
Minimum temperature yesterday: 52 °F (at 5:00 AM)
Average temperature yesterday: 70 °F

Past Weeks' High & Low Weather Summary

 TemperatureHumidityPressure
High82 °F (May 18, 5:00 PM)100% (May 11, 11:00 PM)30.49 "Hg (May 11, 11:00 PM)
Low36 °F (May 23, 5:03 AM)20% (May 23, 3:00 PM)29.74 "Hg (May 12, 1:47 AM)
Average59 °F58%30.09 "Hg
* Reported May 10 9:00 AM — May 25 9:00 AM, Halton Hills, Weather by CustomWeather, © 2015

Note: Actual official high and low records may vary slightly from our data, if they occured in-between our weather recording intervals... More about our weather records

Advertising

Halton Hills weather history for previous 24 hours

 ConditionsComfort  
Time TempWeatherWind HumidityBarometerVisibility
9:00 AM
Mon, May 25
68 °FPartly sunny.9 mph56%30.08 "Hg15 mi
8:00 AM64 °FPartly sunny.10 mph64%30.09 "Hg15 mi
7:00 AM64 °FBroken clouds.7 mph60%30.10 "Hg15 mi
6:00 AM63 °FPartly cloudy.8 mph68%30.10 "Hg15 mi
5:00 AM63 °FLight rain. Overcast.3 mph73%30.11 "Hg15 mi
4:50 AM63 °FLight rain. Overcast.3 mph68%30.11 "Hg15 mi
4:00 AM64 °FOvercast.5 mph64%30.11 "Hg15 mi
3:00 AM66 °FLight rain. Mostly cloudy.3 mph60%30.12 "Hg15 mi
2:00 AM68 °FLight rain. Mostly cloudy.3 mph56%30.13 "Hg15 mi
1:00 AM70 °FLight rain. Overcast.3 mph50%30.13 "Hg15 mi
12:00 AM72 °FLight rain. Partly cloudy.5 mph38%30.13 "Hg15 mi
11:00 PM
Sun, May 24
73 °FOvercast.10 mph33%30.14 "Hg15 mi
10:00 PM75 °FOvercast.12 mph34%30.13 "Hg15 mi
9:00 PM75 °FOvercast.13 mph34%30.13 "Hg15 mi
8:00 PM77 °FOvercast.17 mph34%30.13 "Hg15 mi
7:00 PM79 °FMostly cloudy.18 mph30%30.12 "Hg15 mi
6:00 PM82 °FPartly sunny.14 mph26%30.13 "Hg15 mi
5:00 PM82 °FPartly sunny.15 mph26%30.13 "Hg15 mi
4:00 PM81 °FPartly sunny.14 mph28%30.15 "Hg15 mi
3:00 PM81 °FBroken clouds.18 mph24%30.16 "Hg15 mi
2:00 PM81 °FBroken clouds.14 mph26%30.19 "Hg15 mi
1:00 PM81 °FPartly sunny.15 mph26%30.21 "Hg15 mi
12:00 PM79 °FPartly sunny.12 mph28%30.21 "Hg15 mi
11:00 AM77 °FPartly sunny.12 mph28%30.22 "Hg15 mi
10:00 AM73 °FPartly sunny.8 mph33%30.24 "Hg15 mi
Weather by CustomWeather, © 2015

See weather overviewHow to use our weather pages